Location: General Nathan Twining Observatory
(34.5931°N, 106.8201°W)
Time: 04:27:54
(UTC-06:00)

Daily predictions for brighter satellites

Satellite Brightness Start Highest point End
(mag) Time Altitude Azimuth Time Altitude Azimuth Time Altitude Azimuth
CZ-4C R/B 3.7 04:03:03 41° SE 04:03:03 41° SE 04:07:50 10° SSE
Cosmos 2227 Rocket 3.5 04:03:27 37° E 04:03:27 37° E 04:07:45 10° NE
Lacrosse 5 3.6 04:08:52 30° ENE 04:08:52 30° ENE 04:11:33 10° NE
Cosmos 2297 Rocket 3.5 04:11:41 33° ESE 04:12:08 33° ESE 04:17:08 10° NE
Cosmos 2219 Rocket 3.1 04:08:11 10° N 04:13:39 45° ENE 04:19:03 10° SE
CZ-2D R/B 4.2 04:09:20 10° N 04:10:37 18° N 04:10:37 18° N
Okean O Rocket 3.7 04:13:57 10° NNE 04:16:00 25° NE 04:16:00 25° NE
Cosmos 2344 3.7 04:26:43 59° NW 04:26:43 59° NW 04:35:00 10° NNE
NOSS 3-4 (A) 3.4 04:31:05 80° N 04:31:05 80° N 04:37:14 10° NNE
NOSS 3-4 (C) 3.4 04:31:09 81° NNE 04:31:09 81° NNE 04:37:20 10° NNE
Lacrosse 5 rocket 4.2 04:33:14 12° N 04:33:14 12° N 04:33:44 10° N
PAYLOAD B 4.5 04:33:56 10° NNE 04:39:24 65° ESE 04:40:28 53° SSE
Cosmos 2082 3.6 04:41:45 83° E 04:41:45 83° E 04:47:19 10° NNE
IRS-1C Rocket 4.1 04:37:39 10° NNE 04:42:40 80° NE 04:42:40 80° NE
Resurs 1-4 Rocket 4.1 04:38:52 10° N 04:40:10 16° NNW 04:40:10 16° NNW
Meteor 2-8 Rocket 4.3 04:50:06 68° W 04:50:06 68° W 04:56:12 10° N
Cosmos 2333 Rocket 2.3 04:44:54 10° NNW 04:50:37 74° ENE 04:56:16 10° SSE
Meteor 1-19 Rocket 4.2 04:53:13 45° S 04:55:02 85° E 05:00:41 10° N
GOES 2 Rocket 4.3 04:56:47 44° SSW 04:57:42 47° S 05:04:54 10° E
Cosmos 1727 Rocket 3.9 05:03:38 48° SW 05:05:10 63° W 05:11:25 10° N
Cosmos 923 Rocket 3.9 05:04:51 10° NNW 05:10:12 73° WSW 05:15:30 10° S
Cosmos 1666 3.7 05:07:51 10° N 05:11:35 46° E 05:15:16 10° SSE
DELTA 2 R/B (1) 3.5 05:11:43 53° WSW 05:13:05 85° SSE 05:18:41 10° ENE
Meteor 2-4 Rocket 3.7 05:08:59 14° S 05:14:03 89° ESE 05:19:59 10° N
CZ-4B R/B 3.1 05:09:02 10° N 05:14:23 63° WNW 05:16:14 40° SW
Meteor 1-23 Rocket 4.2 05:10:07 10° S 05:15:42 84° E 05:21:24 10° N
Hubble Space Telescope 2.4 05:16:50 22° S 05:16:50 22° S 05:19:22 10° SE
OTV 4 1.9 05:18:30 35° E 05:18:30 35° E 05:20:17 10° E
Cosmos 2173 Rocket 4.4 05:11:37 10° N 05:17:38 62° E 05:23:42 10° SSE
Cosmos 2237 Rocket 2.0 05:12:11 10° NNW 05:17:50 80° WSW 05:23:25 10° SSE
FALCON 9 R/B 3.7 05:14:24 26° SSW 05:18:15 54° SE 05:38:59 10° ENE
Okean-O 3.0 05:15:15 10° NNE 05:19:40 64° ESE 05:24:03 10° S
RESURS DK-1 2.8 05:22:24 44° NW 05:22:24 44° NW 05:26:02 10° N
ISS -0.8 05:24:40 13° S 05:24:40 13° S 05:25:06 10° SSE
NOSS 3-2 (A) 3.9 05:16:40 10° NW 05:24:18 71° WSW 05:32:23 10° SSE
Cosmos 1459 Rocket 4.2 05:20:48 10° N 05:27:12 77° E 05:33:29 10° S
Cosmos 2058 Rocket 3.5 05:23:10 10° N 05:27:29 61° E 05:31:47 10° SSE
ATLAS 5 CENTAUR R/B 2.4 05:21:29 10° NNW 05:27:41 89° ENE 05:34:14 10° SSE
Cosmos 1898 Rocket 3.5 05:24:11 10° SSW 05:29:28 83° ESE 05:34:48 10° NNE
Cosmos 1980 3.7 05:25:45 10° NNW 05:31:16 55° WSW 05:36:47 10° S
Cosmos 1346 Rocket 2.8 05:32:29 43° SW 05:33:20 53° W 05:37:14 10° N
SL-16 R/B 2.7 05:31:08 10° NNW 05:36:46 62° ENE 05:42:22 10° SSE
MOS 1 Rocket 3.9 05:32:39 10° NNE 05:37:26 62° E 05:42:29 10° S
Gbstr 26 Del rocket 4.5 05:31:03 15° NW 05:37:30 61° SW 05:45:29 10° SSE
ASTRO F (AKARI) 4.1 05:35:31 10° S 05:38:37 68° WSW 05:41:48 10° NNW
COBE Rocket 4.3 05:34:38 10° NNE 05:39:23 62° E 05:43:59 10° S
USA 215 4.3 05:34:39 10° S 05:39:34 23° WSW 05:39:43 22° WSW
Meteor 2-9 Rocket 4.2 05:34:35 10° N 05:40:16 81° W 05:46:03 10° S
Meteor PRIRODA 3.5 05:37:09 10° N 05:40:52 82° WNW 05:44:34 10° SSW
Cosmos 858 Rocket 4.4 05:35:52 10° SSW 05:41:06 86° WNW 05:46:25 10° NNE
ADEOS II 2.0 05:37:27 10° N 05:42:41 69° WNW 05:47:53 10° SSW
NOSS 0 Rocket 4.4 05:39:25 10° NW 05:45:01 36° WSW 05:50:36 10° S
Cosmos 1937 Rocket 3.6 05:39:50 10° SSW 05:45:01 82° ESE 05:50:18 10° NNE
Cosmos 2227 Rocket 3.3 05:45:19 23° W 05:46:39 25° WNW 05:51:15 10° N
CZ-4C R/B 4.1 05:48:29 19° WSW 05:48:29 19° WSW 05:53:12 10° SSW
USA 116 4.3 05:43:27 10° S 05:48:43 80° WSW 05:53:35 10° NNW
CZ-4B R/B 4.0 05:45:16 10° NNE 05:49:11 70° ESE 05:52:54 10° S
Lacrosse 5 3.2 05:48:06 20° WNW 05:49:50 23° NW 05:53:54 10° NNE
Cosmos 1025 Rocket 4.2 05:50:39 23° WNW 05:50:39 23° WNW 05:54:05 10° NNW
Okean O Rocket 3.4 05:51:40 10° NNW 05:53:27 14° WNW 05:53:27 14° WNW
Cosmos 2297 Rocket 3.1 05:53:33 20° WSW 05:56:07 29° WNW 06:00:59 10° N
NOSS 2-2 (D) 3.8 05:52:32 10° SSW 05:56:30 66° ESE 06:00:54 10° NE
Meteor 2-15 4.3 05:50:29 10° S 05:56:32 77° W 06:02:36 10° N
Cosmos 2219 Rocket 3.3 05:53:06 10° NW 05:57:11 21° W 06:01:15 10° SSW
Tiangong 1 3.0 05:57:01 14° NW 05:58:25 19° N 06:00:41 10° NE
Cosmos 1626 Rocket 3.6 05:54:23 10° S 05:58:46 81° E 06:03:09 10° N
NOSS 3-2 (C) 4.2 05:54:10 10° NW 06:01:35 50° WSW 06:09:22 10° S
CENTAUR R/B 3.9 05:55:29 10° NNW 06:03:16 56° NE 06:11:25 10° SE
Delta 142 4.3 06:01:30 17° WSW 06:04:21 35° S 06:08:07 10° ESE
Cosmos 1606 Rocket 4.4 06:01:39 10° NNW 06:05:17 26° W 06:08:55 10° SSW
ADEOS Rocket 3.8 05:58:56 10° N 06:05:20 37° WNW 06:11:10 10° SW
Cosmos 1680 Rocket 4.4 06:04:01 10° NW 06:08:16 25° W 06:12:30 10° SSW
Cosmos 292 Rocket 4.0 06:04:25 10° NNW 06:09:05 46° WSW 06:13:42 10° S
NOSS 2-2 (C) 3.4 06:07:47 10° SSW 06:11:50 82° WNW 06:16:20 10° NNE
USA 129 1.8 06:10:36 10° S 06:12:35 42° W 06:14:27 10° NNW
Cosmos 2061 Rocket 4.3 06:07:51 10° NNW 06:13:47 45° W 06:19:47 10° SSW
NOSS 2-2 (E) 3.5 06:09:54 10° SW 06:13:57 68° WNW 06:18:32 10° NNE
Delta 2 Rocket 2.9 06:11:07 15° W 06:14:10 85° N 06:17:37 10° E
Meteor 2-15 Rocket 4.4 06:09:38 10° SSW 06:15:37 62° W 06:21:38 10° N
Meteor 1-31 Rocket 3.1 06:13:54 10° N 06:17:37 43° WNW 06:21:20 10° SW
Cosmos 1802 Rocket 4.2 06:13:10 10° NNW 06:18:58 45° W 06:24:44 10° SSW
Cosmos 1602 Rocket 3.7 06:17:09 10° SSW 06:21:31 53° W 06:25:51 10° N
OAO 2 Rocket 3.8 06:19:14 10° WSW 06:24:27 61° SSE 06:29:42 10° E
Aureole 2 Rocket 2.3 06:21:25 10° NNW 06:24:46 55° WSW 06:27:47 10° S
SKYMED 2 3.8 06:22:16 10° SSE 06:26:35 78° ENE 06:30:57 10° N
Intercosmos 25 Rocket 4.2 06:25:03 10° N 06:28:43 67° E 06:34:14 10° SSE
Iridium 4 Rocket 4.5 06:25:16 10° SSE 06:30:13 51° E 06:34:45 10° NNE
Genesis I 3.2 06:27:17 10° SSW 06:31:16 78° WNW 06:35:17 10° NNE
Cosmos 1725 Rocket 4.0 06:27:13 10° NNW 06:33:26 65° W 06:39:36 10° S
Cosmos 2333 Rocket 3.8 06:32:09 10° WNW 06:34:06 12° W 06:36:03 10° WSW
SL-24 R/B 4.1 06:30:57 10° N 06:35:10 53° WNW 06:38:54 10° SSW
Cosmos 2263 Rocket 4.1 06:30:22 10° SSE 06:35:23 35° ESE 06:40:23 10° NE
